17.04.2024;20:00;9
17.04.2024;19:00;5
17.04.2024;18:00;3
17.04.2024;17:00;3
17.04.2024;16:00;3
17.04.2024;15:00;4
17.04.2024;14:00;3
17.04.2024;13:00;4
17.04.2024;12:00;3
17.04.2024;11:00;4
17.04.2024;10:00;3
17.04.2024;09:00;4
17.04.2024;08:00;11
17.04.2024;07:00;15
17.04.2024;06:00;13
17.04.2024;05:00;11
17.04.2024;04:00;8
17.04.2024;03:00;7
17.04.2024;02:00;5
17.04.2024;01:00;4
16.04.2024;24:00;4
16.04.2024;23:00;4
16.04.2024;22:00;4
16.04.2024;21:00;4
16.04.2024;20:00;3
16.04.2024;19:00;2
16.04.2024;18:00;3
16.04.2024;17:00;4
16.04.2024;16:00;4
16.04.2024;15:00;3
16.04.2024;14:00;2
16.04.2024;13:00;3
16.04.2024;12:00;5
16.04.2024;11:00;7
16.04.2024;10:00;9
16.04.2024;09:00;9
16.04.2024;08:00;5
16.04.2024;07:00;3
16.04.2024;06:00;3
16.04.2024;05:00;6
16.04.2024;04:00;6
16.04.2024;03:00;5
16.04.2024;02:00;5
16.04.2024;01:00;3
15.04.2024;24:00;2
15.04.2024;23:00;2
15.04.2024;22:00;1
15.04.2024;21:00;5
15.04.2024;20:00;7
15.04.2024;19:00;7
15.04.2024;18:00;6
15.04.2024;17:00;5
15.04.2024;16:00;5
15.04.2024;15:00;6
15.04.2024;14:00;7
15.04.2024;13:00;10
15.04.2024;12:00;13
15.04.2024;11:00;14
15.04.2024;10:00;15
15.04.2024;09:00;12
15.04.2024;08:00;11
15.04.2024;07:00;10
15.04.2024;06:00;10
15.04.2024;05:00;9
15.04.2024;04:00;8
15.04.2024;03:00;9
15.04.2024;02:00;10
15.04.2024;01:00;10
14.04.2024;24:00;12
14.04.2024;23:00;13
14.04.2024;22:00;10
14.04.2024;21:00;5
14.04.2024;20:00;4
14.04.2024;19:00;3
14.04.2024;18:00;3
14.04.2024;17:00;2
14.04.2024;16:00;2
14.04.2024;15:00;2
14.04.2024;14:00;3
14.04.2024;13:00;5
14.04.2024;12:00;4
14.04.2024;11:00;6
14.04.2024;10:00;11
14.04.2024;09:00;16
14.04.2024;08:00;16
14.04.2024;07:00;18
14.04.2024;06:00;14
14.04.2024;05:00;16
14.04.2024;04:00;21
14.04.2024;03:00;19
14.04.2024;02:00;20
14.04.2024;01:00;27
13.04.2024;24:00;32
13.04.2024;23:00;21
13.04.2024;22:00;19
13.04.2024;21:00;12
13.04.2024;20:00;9
13.04.2024;19:00;6
13.04.2024;18:00;6
13.04.2024;17:00;5
13.04.2024;16:00;4
13.04.2024;15:00;4
13.04.2024;14:00;7
13.04.2024;13:00;8
13.04.2024;12:00;9
13.04.2024;11:00;9
13.04.2024;10:00;13
13.04.2024;09:00;14
13.04.2024;08:00;16
13.04.2024;07:00;17
13.04.2024;06:00;16
13.04.2024;05:00;15
13.04.2024;04:00;18
13.04.2024;03:00;21
13.04.2024;02:00;18
13.04.2024;01:00;19
12.04.2024;24:00;20
12.04.2024;23:00;10
12.04.2024;22:00;8
12.04.2024;21:00;10
12.04.2024;20:00;11
12.04.2024;19:00;16
12.04.2024;18:00;12
12.04.2024;17:00;10
12.04.2024;16:00;7
12.04.2024;15:00;8
12.04.2024;14:00;7
12.04.2024;13:00;10
12.04.2024;12:00;17
12.04.2024;11:00;19
12.04.2024;10:00;20
12.04.2024;09:00;20
12.04.2024;08:00;22
12.04.2024;07:00;19
12.04.2024;06:00;20
12.04.2024;05:00;20
12.04.2024;04:00;22
12.04.2024;03:00;22
12.04.2024;02:00;22
12.04.2024;01:00;23
